Torna al catalogo

DELTA 1 DEB

AttivoSSO
NORAD 14909·DEBRIS·🇺🇸 United States

Lanciato Mar 5, 1978 da Vandenberg Space Force Base

Loading…

Prossimi Passaggi (prossime 24 ore)

TLE

AggiornatoSource: Space-Track

Epoca: Sep 14, 2026, 01:42 UTC

1 14909U 78026GJ  26257.07134528  .00001843  00000-0  10533-2 0  9998
2 14909  98.7120 301.0088 0130328 312.1792  76.2211 14.06614477258693

Traccia DELTA 1 DEB in tempo reale con AllMySat

Download on the App Store